EW1476 Weather Reports


Display with metric or nautical units.
time (UTC)temp
F
wind
direction
speed
MPH
gust
MPH
rain 1hr
in
rain 24hr
in
rain mn
in
humidity
%
barometer
mb
20260901070018 72 193 0.0 0.0 0.00 0.00 0.00 94 1018.4
20260901064512 72 193 0.0 0.0 0.00 0.00 0.00 94 1018.6
20260901063008 72 193 0.0 0.0 0.00 0.00 0.00 93 1018.9
20260901061506 72 193 0.0 0.0 0.00 0.00 0.00 93 1019.1
20260901060034 72 193 0.0 0.0 0.00 0.00 0.00 93 1019.1
20260901054526 72 193 0.0 0.0 0.00 0.00 0.00 92 1018.9
20260901053019 72 193 0.0 0.0 0.00 0.00 0.00 93 1019.2
20260901051519 72 193 0.0 0.0 0.00 0.00 0.00 92 1019.3
20260901050012 73 193 0.0 0.0 0.00 0.00 0.00 92 1019.4
20260901044508 73 193 0.0 0.0 0.00 0.00 0.00 92 1019.4
20260901043032 73 194 0.0 0.0 0.00 0.00 0.00 92 1019.5
20260901041528 73 193 0.0 0.0 0.00 0.00 0.00 93 1019.6
20260901040025 72 194 0.0 0.0 0.00 0.00 0.00 92 1019.7
20260901034517 72 194 0.0 0.0 0.00 0.00 0.00 92 1019.7
20260901033031 72 194 0.0 0.0 0.00 0.00 0.00 93 1019.6
20260901031539 72 194 0.0 0.0 0.00 0.00 0.00 93 1019.9
20260901030032 72 193 0.0 0.0 0.00 0.00 0.00 93 1019.9
20260901024527 72 193 0.0 0.0 0.00 0.00 0.00 93 1019.9
20260901023027 72 194 0.0 0.0 0.00 0.00 0.00 92 1019.9
20260901021542 72 194 0.0 0.0 0.00 0.00 0.00 92 1020.0
20260901020019 73 193 0.0 0.0 0.00 0.00 0.00 92 1019.8
20260901014534 73 193 0.0 0.0 0.00 0.00 0.00 91 1019.7
20260901013047 73 194 0.0 0.0 0.00 0.00 0.00 91 1019.6
20260901011531 73 194 0.0 0.0 0.00 0.00 0.00 91 1019.5
20260901010013 74 194 0.0 0.0 0.00 0.00 0.00 90 1019.6
20260901004531 74 193 0.0 0.0 0.00 0.00 0.00 89 1019.6
20260901003028 75 194 0.0 0.0 0.00 0.00 0.00 88 1019.5
20260901001512 75 194 0.0 0.0 0.00 0.00 0.00 88 1019.4
20260901000011 76 194 0.0 0.0 0.00 0.00 0.00 88 1019.4
20260831234508 76 194 0.0 0.0 0.00 0.00 0.00 86 1019.4
20260831233004 77 194 0.0 0.0 0.00 0.00 0.00 85 1019.3
20260831231529 77 194 0.0 0.0 0.00 0.00 0.00 85 1019.4
20260831230024 77 194 0.0 0.0 0.00 0.00 0.00 85 1019.4
20260831224516 77 194 0.0 0.0 0.00 0.00 0.00 85 1019.5
20260831223026 78 194 0.0 0.0 0.00 0.00 0.00 84 1019.7
20260831221514 78 194 0.0 0.0 0.00 0.00 0.00 83 1019.9
20260831220006 78 194 0.0 0.0 0.00 0.00 0.00 82 1019.9
20260831214529 78 194 0.0 0.0 0.00 0.00 0.00 82 1019.9
20260831213032 78 194 0.0 0.0 0.00 0.00 0.00 82 1019.9
20260831211520 78 194 0.0 0.0 0.00 0.00 0.00 82 1019.9
20260831210017 78 194 0.0 0.0 0.00 0.00 0.00 80 1019.9
20260831204512 79 194 0.0 0.0 0.00 0.00 0.00 79 1020.0
20260831203038 79 194 0.0 0.0 0.00 0.00 0.00 79 1020.1
20260831201537 79 194 0.0 0.0 0.00 0.00 0.00 79 1020.2
20260831200026 78 194 0.0 0.0 0.00 0.00 0.00 80 1020.3
20260831194547 78 194 0.0 0.0 0.00 0.00 0.00 80 1020.2
20260831193018 78 194 0.0 0.0 0.00 0.00 0.00 81 1020.5
20260831191518 78 194 0.0 0.0 0.00 0.00 0.00 81 1020.7
20260831190037 78 194 0.0 0.0 0.00 0.00 0.00 80 1020.9
20260831184537 78 194 0.0 0.0 0.00 0.00 0.00 81 1021.1
20260831183030 79 194 0.0 0.0 0.00 0.00 0.00 79 1021.0
20260831181535 79 194 0.0 0.0 0.00 0.00 0.00 76 1020.8
20260831180025 78 194 0.0 0.0 0.00 0.00 0.00 80 1021.2
20260831174532 78 194 0.0 0.0 0.00 0.00 0.00 80 1021.0
20260831173035 78 193 0.0 0.0 0.00 0.00 0.00 78 1021.1
20260831171535 78 193 0.0 0.0 0.00 0.00 0.00 78 1021.3
20260831170032 79 193 0.0 0.0 0.00 0.00 0.00 78 1021.3
20260831164529 79 192 0.0 0.0 0.00 0.00 0.00 77 1021.4
20260831163030 79 192 0.0 1.0 0.00 0.00 0.00 78 1021.3
20260831161523 79 193 0.0 1.0 0.00 0.00 0.00 77 1021.4
20260831160018 77 195 0.0 0.0 0.00 0.00 0.00 80 1021.6
20260831154542 77 195 0.0 0.0 0.00 0.00 0.00 79 1021.5
20260831153011 77 195 0.0 0.0 0.00 0.00 0.00 81 1021.6
20260831151508 76 192 0.0 0.0 0.00 0.00 0.00 82 1021.6
20260831150028 75 192 0.0 0.0 0.00 0.00 0.00 83 1021.7
20260831144527 75 192 0.0 0.0 0.00 0.00 0.00 83 1021.7
20260831143021 76 192 0.0 0.0 0.00 0.00 0.00 83 1021.6
20260831141518 75 192 0.0 0.0 0.00 0.00 0.00 86 1021.7
20260831140013 74 190 0.0 0.0 0.00 0.00 0.00 85 1021.5
20260831134509 73 198 0.0 0.0 0.00 0.00 0.00 88 1021.5
20260831133035 73 198 0.0 0.0 0.00 0.00 0.00 90 1021.5
20260831131526 72 204 0.0 0.0 0.00 0.00 0.00 91 1021.5
20260831130003 72 204 0.0 0.0 0.00 0.00 0.00 92 1021.4
20260831124502 72 204 0.0 0.0 0.00 0.00 0.00 92 1021.5
20260831123002 71 204 0.0 0.0 0.00 0.00 0.00 92 1021.4
20260831121502 71 203 0.0 0.0 0.00 0.00 0.00 93 1021.3
20260831120005 70 203 0.0 0.0 0.00 0.00 0.00 93 1021.2
20260831114508 70 203 0.0 0.0 0.00 0.00 0.00 93 1021.1
20260831113001 69 203 0.0 0.0 0.00 0.00 0.00 93 1021.0
20260831111503 69 203 0.0 1.0 0.00 0.00 0.00 93 1020.8
20260831110002 68 203 0.0 0.0 0.00 0.00 0.00 94 1020.5
20260831104508 68 203 0.0 0.0 0.00 0.00 0.00 94 1020.3
20260831103002 68 203 0.0 0.0 0.00 0.00 0.00 94 1020.3
20260831101504 68 203 0.0 0.0 0.00 0.00 0.00 94 1020.1
20260831100005 68 203 0.0 0.0 0.00 0.00 0.00 94 1020.1
20260831094506 68 203 0.0 0.0 0.00 0.00 0.00 93 1020.2
20260831093011 68 203 0.0 0.0 0.00 0.00 0.00 93 1020.1
20260831091503 68 203 0.0 0.0 0.00 0.00 0.00 93 1019.9
20260831090004 68 203 0.0 0.0 0.00 0.00 0.00 93 1019.9
20260831084504 68 203 0.0 0.0 0.00 0.00 0.00 93 1019.9
20260831083003 68 203 0.0 0.0 0.00 0.00 0.00 93 1020.0
20260831081505 68 203 0.0 0.0 0.00 0.00 0.00 93 1020.1
20260831080004 68 203 0.0 0.0 0.00 0.00 0.00 92 1019.9
20260831074504 69 203 0.0 0.0 0.00 0.00 0.00 93 1019.8
20260831073005 68 203 0.0 0.0 0.00 0.00 0.00 93 1019.8
20260831071510 68 203 0.0 0.0 0.00 0.00 0.00 93 1019.9